BREEZE-KM R/B

Satellite information

Favourite Embed

Satellite Type and Status

ROCKET BODYIN ORBIT

Key statistics

Satellite BREEZE-KM R/B at a glance.

Uptime

3962

Days in orbit

Revolutions

≈ 12.8

Per day

Orbit

LEO

Low Earth Orbit

Inclination

82.5

Latest

Satellite identification and parameters

Extended collection of information and parameters for BREEZE-KM R/B.

Object identification

Identified? True

Debris? False

Object name: BREEZE-KM R/B

International designator: 2014-036D

Object number (NORAD): 40064

Object ID (CCSDS): 40064

Country: COMMONWEALTH OF INDEPENDENT STATES (CIS)

Current information (Y/N): Y

RCS size: LARGE

Orbital parameters

Period: 112.346 minutes

Inclination: 82.5158 deg

SMA: 7712.569 km

Apoapsis: 1511.847 km

Periapsis: 1157.022 km

RAAN: 15.323 deg

Eccentricy: 0.023003

Argument of periapsis: 341.9374 deg

Mean anomaly: 17.365 deg

Mean motion: 12.81752361 rev/day

Mean motion (dot): 0.00000001 rev/day2

B* drag term: -0.000034193 1/REarth

Two-line elements (TLE)

Creation date: May 7, 2025, 3:14 a.m.

Reference frame: TEME

Reference center: EARTH

Epoch: May 6, 2025, 7:21 p.m. UTC

TLE line 0: 0 BREEZE-KM R/B

TLE line 1: 1 40064U 14036D 25126.80693665 .00000001 00000-0 -34193-4 0 9993

TLE line 2: 2 40064 82.5158 15.3230 0230030 341.9374 17.3650 12.81752361507312

Live tracking on map

Real-time ground track for satellite BREEZE-KM R/B.

In-orbit conjunctions

A list of the most updated potential collisions computed for object BREEZE-KM R/B.

Target Orbit TCA Probability of collision Miss distance Type
FENGYUN 1C DEB SSO 2024-09-24 17:52:59 0.0001675708 231.0 (m) DEBRIS
DELTA 1 DEB SSO 2024-09-07 11:08:09 0.0001024821 263.0 (m) DEBRIS

Associated space launch

Gonets-M are an upgraded version of Gonets satellites, derived from military communications system Strela-3. Gonets-M constellation is tasked with monitoring ecological and industrial objects, providing communication and data transmission services, covering also the remote areas like the Far North region.

BREEZE-KM R/B was lifted into orbit during the mission ‘Rokot / Briz-KM | Gonets-M18, Gonets-M19, Gonets-M20’, on board a Rokot/Briz-KM space rocket.

The launch took place on July 3, 2014, 12:43 p.m. from 133/3 (133L).

For more information about the launch, click the button.

Launch to space Rokot / Briz-KM | Gonets-M18, Gonets-M19, Gonets-M20
Rokot / Briz-KM | Gonets-M18, Gonets-M19, Gonets-M20

Agency: N/A

Status: Launch Successful

Launch date: July 3, 2014, 12:43 p.m. UTC

Rocket: Rokot/Briz-KM

Launch pad: 133/3 (133L)

Location: Plesetsk Cosmodrome, Russian Federation

...

Latest news about this satellite

There are no fresh news available about this satellite. Check back as we update our databases every day.


Newsletter sign-up

Weekly statistics, charts and insights to help you stay on top of the space industry.